Overview Statistics Trail Chart Weather Telemetry Raw packets
 

This is the latest recevied weather packets stored in our database for station/object KQ7A. If no packets are shown the sender has not sent any weather packets the latest 10 day(s).

<< 6 7 8 9 10 11 12 >>
Time Temp. Humidity Pressure Rain* Wind** Luminosity Snow
1788635636 21.11° C 30% 1016.9 hPa 0 mm - 753 W/m² -
1788635335 21.67° C 32% 1017.3 hPa 0 mm - 764 W/m² -
1788635028 21.67° C 30% 1017.6 hPa 0 mm - 765 W/m² -
1788634727 21.67° C 32% 1017.4 hPa 0 mm - 794 W/m² -
1788634417 21.11° C 32% 1017.3 hPa 0 mm - 801 W/m² -
1788634116 21.11° C 33% 1017.5 hPa 0 mm - 819 W/m² -
1788633816 21.11° C 33% 1017.6 hPa 0 mm - 865 W/m² -
1788633514 21.11° C 31% 1017.5 hPa 0 mm - 858 W/m² -
1788633210 21.67° C 33% 1017.8 hPa 0 mm - 851 W/m² -
1788632910 21.67° C 33% 1017.8 hPa 0 mm - 835 W/m² -
1788632603 21.11° C 32% 1017.6 hPa 0 mm - 865 W/m² -
1788632293 21.11° C 34% 1017.7 hPa 0 mm - 888 W/m² -
1788631987 20.56° C 33% 1017.7 hPa 0 mm - 859 W/m² -
1788631686 20.56° C 33% 1017.8 hPa 0 mm - 859 W/m² -
1788631382 20.56° C 35% 1017.5 hPa 0 mm - 861 W/m² -
1788631076 19.44° C 35% 1017.6 hPa 0 mm - 837 W/m² -
1788630771 20° C 35% 1017.7 hPa 0 mm - 846 W/m² -
1788630466 20.56° C 36% 1017.6 hPa 0 mm - 838 W/m² -
1788630162 19.44° C 38% 1017.7 hPa 0 mm - 795 W/m² -
1788629858 18.89° C 41% 1018.1 hPa 0 mm - 797 W/m² -
1788629560 17.78° C 46% 1017.6 hPa 0 mm - 780 W/m² -
1788629253 18.89° C 46% 1017.8 hPa 0 mm - 774 W/m² -
1788628947 18.89° C 45% 1017.8 hPa 0 mm - 188 W/m² -
1788628643 19.44° C 44% 1018.2 hPa 0 mm - 753 W/m² -
1788628339 18.33° C 46% 1017.8 hPa 0 mm - 727 W/m² -

* Rain latest hour (hover to see other rain measurements)
** Current wind speed in m/s (hover to see current wind gust speed)